Location: Taupo
(38.6830°S, 176.0830°E)
Time: 22:47:59
(UTC+12:00)

ADEOS Rocket - Pass Details

Date: 24 January 2019
Orbit: 859 x 1307 km, 98.7° (Epoch: 21 April)

Event Time Altitude Azimuth Distance (km) Brightness Sun altitude
Exits shadow 23:06:02 17° 330° (NNW) 2,074 4.5 -23.3°
Maximum altitude 23:09:30 32° 277° (W) 1,454 4.1 -23.7°
Drops below altitude 10° 23:14:27 10° 214° (SW) 2,524 6.3 -24.2°
Sets 23:17:05 0° 204° (SSW) 3,474 7.2 -24.5°
